Starlink 30605

operational
NORAD ID: 58101 Int'l Des: 2023-161 Owner: SPXS Country: US Constellation: starlink
LEOCIRCULAR

Über Starlink 30605

Beschreibung wird geladen...

Live-Position

3D-Globus wird geladen...

Nächste Überflüge

Höhenverlauf

Altitude vs Time

uPlot chart will show altitude changes over time

Zweizeiliger Elementsatz

1 58101U 23161E 25302.47515346 -.00001435 00000-0 -36351-4 0 9992
2 58101 53.1598 54.9021 0001201 90.9805 269.1334 15.30179875114330
Epoch: 29. Okt. 2025 • Age: 12 hours

Aktueller Status

Höhe 486.4 km
Geschwindigkeit 7.62 km/s
Subsatellitenpunkt -33.52°S, 11.94°W
Startdatum 21. Okt. 2023
Alter 2 years
Typ internet

Technische Details

Klassifizierung Payload
Masse 730.00 kg
Trockenmasse 700.00 kg
Gesamtmasse 730.00 kg
Länge 0.30 m
Durchmesser 4.10 m
Spannweite 29.00 m
Form Box + pan
Hersteller SPXS
Bus-Typ Starlink V2M
Phasenstatus In Orbit
Besitzer/Staat SPXS/US

Große Konstellationen

Loading constellations...